Palm Springs, CA

1:54 PM PST on February 21, 2017 (GMT -0800)
Palm Springs International

Weather History for KPSP - October, 2012

Change the Weather History Date:

Sunday, October 21, 2012

  Actual Average Record
Temperature  
Mean Temperature 73 °F 74 °F  
Max Temperature 83 °F 87 °F 104 °F (1939)
Min Temperature 63 °F 61 °F 39 °F (1949)
Degree Days  
Heating Degree Days 0 0  
Month to date heating degree days 0 0  
Since 1 July heating degree days 0 0  
Cooling Degree Days 8 9  
Month to date cooling degree days 328 260  
Year to date cooling degree days 4515 3986  
Growing Degree Days 23 (Base 50)    
Moisture  
Dew Point 52 °F    
Average Humidity 54    
Maximum Humidity 73    
Minimum Humidity 34    
Precipitation  
Precipitation 0.00 in 0.02 in 0.05 in (1978)
Month to date precipitation 0.00 0.27  
Year to date precipitation 1.82 4.16  
Since 1 July precipitation 1.03  
Sea Level Pressure  
Sea Level Pressure 29.74 in    
Wind  
Wind Speed 7 mph (WNW)    
Max Wind Speed 25 mph    
Max Gust Speed 32 mph    
Visibility 10 miles    
Events      
T = Trace of Precipitation, MM = Missing Value Source: NWS Daily Summary

Daily Weather History Graph

Daily Weather History Graph

Search for Another Location

Airport or City:

Trip Planner

Search our weather history database for the weather conditions in past years. The results will help you decide how hot, cold, wet, or windy it might be!

Date:

Astronomy

Oct. 21, 2012 Rise Set
Actual Time 6:56 AM PDT 6:04 PM PDT
Civil Twilight 6:30 AM PDT 6:29 PM PDT
Nautical Twilight 6:01 AM PDT 6:58 PM PDT
Astronomical Twilight 5:32 AM PDT 7:27 PM PDT
Moon 1:14 PM PDT No Moon Set
Length of Visible Light 11h 58m
Length of Day
11h 08m
Waxing Crescent, 46% of the Moon is Illuminated
Oct 21
Waxing Crescent
Oct 21
First Quarter
Oct 29
Full
Nov 6
Last Quarter
Nov 13
New

Hourly Weather History & Observations

Time (PDT) Temp. Heat Index Dew Point Humidity Pressure Visibility Wind Dir Wind Speed Gust Speed Precip Events Conditions
12:53 AM 70.0 °F - 57.0 °F 63% 29.71 in 10.0 mi Calm Calm - N/A   Clear
1:53 AM 68.0 °F - 57.0 °F 68% 29.71 in 10.0 mi Calm Calm - N/A   Clear
2:53 AM 66.9 °F - 55.9 °F 68% 29.70 in 10.0 mi South 4.6 mph - N/A   Clear
3:53 AM 66.0 °F - 55.0 °F 68% 29.70 in 10.0 mi SE 3.5 mph - N/A   Clear
4:53 AM 66.0 °F - 55.0 °F 68% 29.71 in 10.0 mi WSW 3.5 mph - N/A   Clear
5:53 AM 64.9 °F - 55.0 °F 70% 29.72 in 10.0 mi Calm Calm - N/A   Clear
6:53 AM 64.0 °F - 55.0 °F 73% 29.73 in 10.0 mi WSW 3.5 mph - N/A   Clear
7:53 AM 66.0 °F - 55.0 °F 68% 29.75 in 10.0 mi Calm Calm - N/A   Clear
8:53 AM 71.1 °F - 53.1 °F 53% 29.77 in 10.0 mi Calm Calm - N/A   Clear
9:53 AM 75.0 °F - 54.0 °F 48% 29.78 in 10.0 mi SE 4.6 mph - N/A   Clear
10:53 AM 79.0 °F - 51.1 °F 38% 29.78 in 10.0 mi Calm Calm - N/A   Partly Cloudy
11:53 AM 80.1 °F - 52.0 °F 38% 29.78 in 10.0 mi NNW 16.1 mph 21.9 mph N/A   Partly Cloudy
12:53 PM 81.0 °F - 52.0 °F 36% 29.75 in 10.0 mi NNW 15.0 mph 18.4 mph N/A   Partly Cloudy
1:53 PM 82.0 °F 81.2 °F 53.1 °F 37% 29.73 in 10.0 mi NW 18.4 mph 25.3 mph N/A   Partly Cloudy
2:53 PM 82.0 °F - 51.1 °F 34% 29.73 in 10.0 mi NNW 21.9 mph 29.9 mph N/A   Clear
3:53 PM 81.0 °F - 50.0 °F 34% 29.73 in 10.0 mi NW 16.1 mph 24.2 mph N/A   Clear
4:53 PM 80.1 °F - 48.9 °F 34% 29.72 in 10.0 mi NW 19.6 mph 26.5 mph N/A   Clear
5:53 PM 78.1 °F - 48.0 °F 35% 29.73 in 10.0 mi NW 19.6 mph 24.2 mph N/A   Clear
6:53 PM 78.1 °F - 48.0 °F 35% 29.74 in 10.0 mi NW 11.5 mph - N/A   Clear
7:53 PM 75.9 °F - 48.9 °F 38% 29.75 in 10.0 mi NW 9.2 mph 18.4 mph N/A   Clear
8:53 PM 75.0 °F - 48.9 °F 40% 29.76 in 10.0 mi NW 6.9 mph - N/A   Clear
9:53 PM 73.9 °F - 51.1 °F 45% 29.77 in 10.0 mi WNW 10.4 mph 26.5 mph N/A   Clear
10:53 PM 73.0 °F - 51.1 °F 46% 29.77 in 10.0 mi NW 13.8 mph 19.6 mph N/A   Clear
11:53 PM 70.0 °F - 50.0 °F 49% 29.77 in 10.0 mi WNW 3.5 mph - N/A   Clear